GW5290 Weather Reports


time (UTC)temp
C
wind
direction
speed
KPH
gust
KPH
rain 1hr
cm
rain 24hr
cm
rain mn
cm
humidity
%
barometer
mb
20260508024008 7 340 0.0 1.6 0.00 0.25 0.25 51 1006.5
20260508023508 7 344 0.0 4.8 0.00 0.25 0.25 50 1006.5
20260508023026 7 313 0.0 4.8 0.00 0.25 0.25 50 1006.4
20260508022511 8 34 0.0 4.8 0.00 0.25 0.25 51 1006.3
20260508022014 8 352 0.0 4.8 0.00 0.25 0.25 50 1006.3
20260508021528 8 352 0.0 3.2 0.00 0.25 0.25 48 1006.3
20260508021007 8 268 0.0 4.8 0.00 0.25 0.25 49 1006.2
20260508020510 8 351 0.0 9.7 0.00 0.25 0.25 50 1006.3
20260508020028 8 323 0.0 9.7 0.00 0.25 0.25 49 1006.2
20260508015506 8 301 1.6 9.7 0.00 0.25 0.25 49 1006.1
20260508015009 8 27 1.6 8.0 0.00 0.25 0.25 49 1006.1
20260508014532 8 324 1.6 8.0 0.00 0.28 0.25 48 1006.0
20260508014007 9 24 1.6 6.4 0.00 0.28 0.25 48 1006.0
20260508013508 9 331 0.0 4.8 0.00 0.28 0.25 47 1006.0
20260508013033 9 348 0.0 4.8 0.00 0.28 0.25 47 1006.0
20260508012508 9 340 0.0 4.8 0.00 0.30 0.25 47 1005.9
20260508012010 10 5 1.6 6.4 0.00 0.30 0.25 46 1005.8
20260508011531 10 17 1.6 12.9 0.00 0.30 0.25 46 1005.8
20260508011015 10 281 4.8 12.9 0.00 0.30 0.25 47 1005.6
20260508010510 10 16 1.6 6.4 0.00 0.30 0.25 45 1005.6
20260508010028 10 360 1.6 6.4 0.00 0.30 0.25 46 1005.5
20260508005509 10 30 1.6 9.7 0.00 0.30 0.25 45 1005.5
20260508005011 10 25 1.6 11.3 0.00 0.33 0.25 46 1005.3
20260508004539 10 352 3.2 12.9 0.00 0.33 0.25 45 1005.2
20260508004013 10 16 3.2 12.9 0.00 0.33 0.25 44 1005.1
20260508003511 11 5 3.2 8.0 0.00 0.33 0.25 44 1005.0
20260508003018 11 22 3.2 6.4 0.00 0.33 0.25 45 1004.9
20260508002507 11 352 3.2 6.4 0.00 0.33 0.25 42 1004.9
20260508002018 11 16 1.6 6.4 0.00 0.33 0.25 42 1004.8
20260508001530 11 360 1.6 6.4 0.00 0.33 0.25 41 1004.7
20260508001009 12 319 0.0 3.2 0.00 0.33 0.25 41 1004.6
20260508000514 12 352 0.0 12.9 0.00 0.33 0.25 41 1004.6
20260508000021 12 333 1.6 12.9 0.00 0.33 0.25 40 1004.6
20260507235509 12 19 1.6 8.0 0.00 0.33 0.25 40 1004.6
20260507235008 12 336 1.6 6.4 0.00 0.33 0.25 39 1004.6
20260507234523 12 40 0.0 6.4 0.00 0.33 0.25 37 1004.5
20260507234008 13 12 0.0 8.0 0.00 0.33 0.25 37 1004.4
20260507233517 13 317 0.0 12.9 0.00 0.33 0.25 37 1004.4
20260507233020 13 261 0.0 12.9 0.00 0.33 0.25 39 1004.3
20260507232512 13 22 1.6 8.0 0.00 0.33 0.25 37 1004.3
20260507232015 13 279 1.6 8.0 0.00 0.33 0.25 37 1004.2
20260507231523 13 316 0.0 8.0 0.00 0.33 0.25 36 1004.1
20260507231009 13 22 1.6 8.0 0.00 0.33 0.25 36 1003.9
20260507230508 13 343 1.6 8.0 0.00 0.33 0.25 34 1003.8
20260507230026 13 325 1.6 6.4 0.00 0.33 0.25 36 1003.7
20260507225508 14 223 1.6 8.0 0.00 0.33 0.25 36 1003.5
20260507225010 14 5 3.2 16.1 0.00 0.33 0.25 35 1003.5
20260507224523 15 182 3.2 16.1 0.00 0.33 0.25 36 1003.5
20260507224009 15 279 1.6 11.3 0.00 0.33 0.25 34 1003.4
20260507223516 15 321 3.2 9.7 0.00 0.33 0.25 35 1003.4
20260507223026 15 319 3.2 12.9 0.00 0.36 0.25 36 1003.4
20260507222508 15 317 1.6 14.5 0.00 0.36 0.25 36 1003.3
20260507222011 15 294 4.8 20.9 0.00 0.36 0.25 34 1003.3
20260507221530 15 288 3.2 20.9 0.00 0.36 0.25 33 1003.2
20260507221013 15 247 4.8 20.9 0.00 0.36 0.25 32 1003.3
20260507220514 15 265 6.4 20.9 0.00 0.38 0.25 33 1003.2
20260507220024 16 254 8.0 20.9 0.00 0.38 0.25 32 1003.1
20260507215514 16 222 3.2 22.5 0.00 0.38 0.25 32 1003.2
20260507215011 16 295 9.7 22.5 0.00 0.41 0.25 33 1003.1
20260507214527 16 304 4.8 16.1 0.00 0.41 0.25 30 1003.2
20260507214008 16 240 6.4 17.7 0.00 0.41 0.25 31 1003.3
20260507213505 16 248 6.4 17.7 0.00 0.43 0.25 30 1003.2
20260507213011 16 178 8.0 24.1 0.00 0.46 0.25 33 1003.1
20260507212505 16 304 4.8 24.1 0.00 0.46 0.25 31 1003.1
20260507212004 16 352 6.4 16.1 0.00 0.46 0.25 31 1003.2
20260507211507 16 333 4.8 17.7 0.00 0.48 0.25 30 1003.2
20260507211006 16 230 9.7 20.9 0.00 0.56 0.25 32 1003.1
20260507210503 16 223 3.2 20.9 0.00 0.58 0.25 32 1003.0
20260507210009 16 295 8.0 20.9 0.00 0.66 0.25 30 1003.0
20260507205508 16 325 4.8 20.9 0.00 0.66 0.25 30 1002.9
20260507205003 16 256 6.4 22.5 0.00 0.69 0.25 32 1003.0
20260507204510 17 247 1.6 22.5 0.00 0.69 0.25 32 1003.0
20260507204005 17 206 4.8 19.3 0.00 0.71 0.25 32 1002.9
20260507203504 17 231 6.4 16.1 0.00 0.71 0.25 32 1002.9
20260507203019 17 236 1.6 25.7 0.00 0.71 0.25 32 1002.9
20260507202503 17 252 8.0 25.7 0.00 0.74 0.25 31 1003.0
20260507202003 17 217 9.7 17.7 0.00 0.74 0.25 32 1002.8
20260507201511 17 248 4.8 29.0 0.00 0.74 0.25 34 1003.1
20260507201006 17 235 11.3 29.0 0.00 0.74 0.25 31 1002.9
20260507200503 17 257 4.8 27.4 0.00 0.74 0.25 31 1002.9
20260507200010 17 259 4.8 27.4 0.00 0.76 0.25 31 1002.9
20260507195503 17 261 9.7 25.7 0.00 0.76 0.25 30 1002.9
20260507195003 18 222 6.4 25.7 0.00 0.79 0.25 33 1002.9
20260507194516 18 287 4.8 16.1 0.00 0.86 0.25 30 1002.9
20260507194004 17 49 4.8 20.9 0.00 0.89 0.25 29 1002.7
20260507193504 18 238 12.9 25.7 0.00 0.89 0.25 32 1003.0
20260507193017 18 266 9.7 25.7 0.00 0.91 0.25 29 1003.1
20260507192503 18 196 3.2 27.4 0.00 0.91 0.25 33 1003.1
20260507192006 18 260 6.4 27.4 0.00 0.91 0.25 35 1003.1
20260507191515 17 284 6.4 17.7 0.00 0.94 0.25 33 1003.2
20260507191003 17 333 3.2 22.5 0.00 0.97 0.25 34 1003.2
20260507190506 17 261 9.7 22.5 0.00 0.97 0.25 37 1003.2
20260507190016 17 202 4.8 22.5 0.00 0.99 0.25 36 1003.1
20260507185507 17 128 6.4 22.5 0.00 0.99 0.25 38 1003.1
20260507185007 17 323 3.2 19.3 0.00 0.99 0.25 39 1003.1
20260507184518 17 313 4.8 24.1 0.00 1.02 0.25 42 1003.1
20260507184003 17 241 9.7 30.6 0.00 1.02 0.25 42 1003.0
20260507183507 17 220 11.3 30.6 0.00 1.02 0.25 43 1003.1
20260507183015 17 235 6.4 20.9 0.00 1.02 0.25 44 1003.1
20260507182503 17 281 8.0 20.9 0.00 1.02 0.25 44 1003.2
20260507182007 17 231 8.0 22.5 0.00 1.02 0.25 44 1003.2
20260507181512 17 274 4.8 22.5 0.00 1.02 0.25 44 1003.2
20260507181006 17 206 8.0 19.3 0.00 1.02 0.25 45 1003.2
20260507180509 17 255 6.4 17.7 0.00 1.02 0.25 43 1003.3
20260507180018 17 352 4.8 17.7 0.00 1.02 0.25 43 1003.4
20260507175503 17 323 3.2 29.0 0.00 1.02 0.25 44 1003.4
20260507175006 17 251 6.4 29.0 0.00 1.02 0.25 50 1003.5
20260507174523 16 209 12.9 27.4 0.00 1.02 0.25 48 1003.6
20260507174005 16 275 1.6 19.3 0.00 1.02 0.25 50 1003.6
20260507173506 15 251 4.8 17.7 0.00 1.02 0.25 50 1003.7
20260507173008 15 71 4.8 20.9 0.00 1.02 0.25 51 1003.8
20260507172508 15 216 6.4 20.9 0.00 1.02 0.25 57 1003.9
20260507172008 15 234 1.6 4.8 0.00 1.02 0.25 66 1003.7
20260507171503 14 308 1.6 6.4 0.00 1.02 0.25 65 1003.8
20260507171009 14 162 3.2 6.4 0.00 1.02 0.25 67 1003.9
20260507170508 13 107 0.0 3.2 0.00 1.02 0.25 65 1004.0
20260507170004 13 150 1.6 4.8 0.00 1.02 0.25 66 1004.0
20260507165507 13 19 0.0 8.0 0.00 1.02 0.25 66 1004.2
20260507165011 13 226 3.2 8.0 0.00 1.02 0.25 65 1004.3
20260507164504 13 194 1.6 6.4 0.00 1.02 0.25 66 1004.3
20260507164006 13 189 1.6 6.4 0.00 1.02 0.25 66 1004.3
20260507163507 14 175 1.6 8.0 0.00 1.02 0.25 66 1004.3
20260507163009 14 153 0.0 8.0 0.00 1.02 0.25 67 1004.3
20260507162509 14 186 1.6 8.0 0.00 1.02 0.25 67 1004.3
20260507162010 15 175 3.2 8.0 0.00 1.02 0.25 68 1004.4
20260507161508 15 190 1.6 6.4 0.00 1.02 0.25 64 1004.4
20260507161008 15 169 1.6 11.3 0.00 1.02 0.25 63 1004.5
20260507160507 15 189 3.2 11.3 0.00 1.02 0.25 61 1004.6
20260507160007 16 241 4.8 9.7 0.00 1.02 0.25 58 1004.6
20260507155515 16 5 1.6 12.9 0.00 1.02 0.25 48 1004.7
20260507155011 17 238 3.2 12.9 0.00 1.02 0.25 48 1004.8
20260507154506 17 90 3.2 16.1 0.00 1.02 0.25 50 1004.7
20260507154011 16 268 6.4 16.1 0.00 1.02 0.25 48 1004.9
20260507153505 16 284 3.2 19.3 0.00 1.02 0.25 49 1004.9
20260507153018 17 337 9.7 19.3 0.00 1.02 0.25 46 1005.0
20260507152508 17 352 3.2 12.9 0.00 1.02 0.25 47 1004.9
20260507152013 16 202 3.2 12.9 0.00 1.02 0.25 51 1005.0
20260507151518 16 263 4.8 12.9 0.00 1.02 0.25 57 1005.0
20260507151008 16 235 3.2 12.9 0.00 1.02 0.25 51 1004.9
20260507150509 16 9 1.6 11.3 0.00 1.02 0.25 54 1005.0
20260507150033 16 252 4.8 11.3 0.00 1.02 0.25 57 1005.0
20260507145510 16 233 1.6 12.9 0.00 1.02 0.25 54 1004.9
20260507145012 15 297 3.2 12.9 0.00 1.02 0.25 62 1005.0
20260507144518 15 333 3.2 16.1 0.00 1.02 0.25 56 1005.0
20260507144010 15 24 0.0 19.3 0.00 1.02 0.25 59 1005.0
20260507143512 15 263 6.4 19.3 0.00 1.02 0.25 57 1005.0
20260507143016 15 253 3.2 16.1 0.00 1.02 0.25 58 1005.0
20260507142506 15 205 1.6 17.7 0.00 1.02 0.25 60 1005.2
20260507142013 15 242 9.7 17.7 0.00 1.02 0.25 59 1005.4
20260507141517 15 238 3.2 9.7 0.00 1.02 0.25 60 1005.4
20260507141008 15 323 1.6 9.7 0.00 1.02 0.25 59 1005.3
20260507140509 15 238 1.6 9.7 0.00 1.02 0.25 60 1005.4
20260507140017 15 335 3.2 9.7 0.00 1.02 0.25 59 1005.4
20260507135506 14 41 1.6 14.5 0.00 1.02 0.25 63 1005.4
20260507135006 14 229 1.6 14.5 0.00 1.02 0.25 61 1005.4
20260507134520 14 109 1.6 17.7 0.00 1.02 0.25 62 1005.4
20260507134005 14 233 8.0 17.7 0.00 1.02 0.25 63 1005.5
20260507133509 14 322 1.6 11.3 0.00 1.02 0.25 68 1005.6
20260507133021 13 193 1.6 8.0 0.00 1.02 0.25 69 1005.6
20260507132516 13 5 1.6 12.9 0.00 1.02 0.25 67 1005.5
20260507132009 13 21 3.2 20.9 0.00 1.02 0.25 66 1005.6
20260507131519 13 31 4.8 20.9 0.00 1.02 0.25 65 1005.6
20260507131009 12 352 3.2 16.1 0.00 1.02 0.25 67 1005.6
20260507130510 12 308 6.4 16.1 0.00 1.02 0.25 68 1005.6
20260507130019 12 5 4.8 12.9 0.00 1.02 0.25 67 1005.6
20260507125511 12 244 3.2 9.7 0.00 1.02 0.25 70 1005.6
20260507125006 12 173 3.2 9.7 0.00 1.02 0.25 70 1005.7
20260507124526 12 321 1.6 9.7 0.00 1.02 0.25 72 1005.7
20260507124010 12 304 3.2 9.7 0.00 1.02 0.25 73 1005.7
20260507123506 11 217 1.6 11.3 0.00 1.02 0.25 73 1005.8
20260507123031 11 256 3.2 12.9 0.00 1.02 0.25 75 1005.7
20260507122503 11 142 1.6 12.9 0.00 1.02 0.25 76 1005.7
20260507122010 11 5 4.8 12.9 0.00 1.02 0.25 74 1005.8
20260507121520 10 34 3.2 14.5 0.00 1.02 0.25 75 1005.7
20260507121008 10 333 1.6 14.5 0.00 1.02 0.25 78 1005.7
20260507120509 10 84 1.6 6.4 0.00 1.02 0.25 82 1005.7
20260507120021 10 288 1.6 6.4 0.00 1.02 0.25 83 1005.8
20260507115507 9 226 1.6 8.0 0.00 1.02 0.25 83 1005.9
20260507115006 9 244 1.6 8.0 0.00 1.02 0.25 85 1005.9
20260507114521 8 298 1.6 8.0 0.00 1.02 0.25 85 1005.8
20260507114006 8 288 0.0 6.4 0.00 1.02 0.25 88 1005.7
20260507113511 8 290 0.0 6.4 0.00 1.02 0.25 89 1005.7
20260507113023 8 360 1.6 9.7 0.00 1.02 0.25 89 1005.6
20260507112506 8 11 3.2 9.7 0.00 1.02 0.25 89 1005.8
20260507112010 8 247 0.0 3.2 0.00 1.02 0.25 91 1005.9
20260507111522 8 281 0.0 1.6 0.00 1.02 0.25 92 1006.0
20260507111006 8 238 0.0 3.2 0.00 1.02 0.25 92 1006.1
20260507110510 7 238 0.0 3.2 0.00 1.02 0.25 92 1006.3
20260507110022 7 319 0.0 4.8 0.00 1.02 0.25 94 1006.1
20260507105509 7 17 1.6 4.8 0.00 1.02 0.25 94 1005.6
20260507105007 7 352 1.6 3.2 0.00 1.02 0.25 94 1005.8
20260507104523 7 259 0.0 3.2 0.00 1.02 0.25 94 1006.4
20260507104010 7 244 1.6 3.2 0.00 1.02 0.25 93 1006.5
20260507103512 7 350 0.0 3.2 0.00 1.02 0.25 93 1005.9
20260507103029 7 352 0.0 3.2 0.00 1.02 0.25 93 1006.1
20260507102507 7 246 0.0 3.2 0.00 1.02 0.25 92 1006.3
20260507102008 7 242 0.0 3.2 0.00 1.02 0.25 92 1006.2
20260507101533 7 324 0.0 6.4 0.00 1.02 0.25 92 1005.8
20260507101007 7 229 0.0 6.4 0.00 1.02 0.25 92 1006.1
20260507100509 7 342 0.0 1.6 0.00 1.02 0.25 93 1005.9
20260507100025 7 274 0.0 3.2 0.00 1.02 0.25 93 1006.1
20260507095507 7 274 0.0 3.2 0.00 1.02 0.25 92 1006.1
20260507095010 7 310 0.0 3.2 0.00 1.02 0.25 92 1005.7
20260507094509 7 314 0.0 6.4 0.00 1.02 0.25 92 1005.6
20260507094005 7 338 1.6 6.4 0.00 1.02 0.25 90 1005.3
20260507093506 7 215 0.0 6.4 0.00 1.02 0.25 91 1005.7
20260507093014 7 270 0.0 8.0 0.00 1.02 0.25 91 1005.6
20260507092503 7 34 1.6 8.0 0.00 1.02 0.25 90 1005.0
20260507092004 7 263 0.0 8.0 0.00 1.02 0.25 91 1005.2
20260507091518 7 36 1.6 8.0 0.00 1.02 0.25 91 1005.2
20260507091003 7 300 0.0 11.3 0.00 1.02 0.25 91 1005.3
20260507090503 7 256 1.6 11.3 0.00 1.02 0.25 91 1005.6
20260507090017 7 302 1.6 6.4 0.00 1.02 0.25 90 1005.6
20260507085503 7 346 1.6 6.4 0.00 1.02 0.25 89 1005.6
20260507085004 7 16 1.6 6.4 0.00 1.02 0.25 89 1005.4
20260507084520 7 50 0.0 8.0 0.00 1.02 0.25 90 1005.8
20260507084004 7 325 1.6 8.0 0.00 1.02 0.25 90 1005.9
20260507083505 8 268 0.0 6.4 0.00 1.02 0.25 90 1005.7
20260507083020 8 286 3.2 12.9 0.00 1.02 0.25 89 1005.5
20260507082504 8 30 3.2 12.9 0.00 1.02 0.25 89 1005.2
20260507082005 8 298 3.2 12.9 0.00 1.02 0.25 90 1004.9
20260507081520 8 322 1.6 12.9 0.00 1.02 0.25 90 1005.1
20260507081003 8 341 3.2 12.9 0.00 1.02 0.25 90 1005.2
20260507080507 8 273 1.6 14.5 0.00 1.02 0.25 92 1005.5
20260507080019 8 96 3.2 14.5 0.00 1.02 0.25 91 1005.3
20260507075503 8 30 3.2 11.3 0.00 1.02 0.25 92 1005.0
20260507075006 8 352 1.6 6.4 0.00 1.02 0.25 93 1005.0
20260507074523 8 339 1.6 4.8 0.00 1.02 0.25 94 1004.8
20260507074001 8 360 0.0 6.4 0.00 1.02 0.25 94 1004.9
20260507073506 8 316 1.6 6.4 0.00 1.02 0.25 94 1005.0
20260507073024 8 333 1.6 4.8 0.00 1.02 0.25 95 1004.8
20260507072503 8 300 0.0 8.0 0.00 1.02 0.25 95 1004.9
20260507072007 8 236 1.6 8.0 0.00 1.02 0.25 95 1004.9
20260507071525 8 284 0.0 1.6 0.00 1.02 0.25 95 1004.7
20260507071002 8 352 0.0 3.2 0.00 1.02 0.25 95 1004.8
20260507070507 8 326 0.0 6.4 0.00 1.02 0.25 95 1004.8
20260507070008 9 306 0.0 6.4 0.00 1.02 0.25 95 1004.6
20260507065505 9 329 0.0 6.4 0.00 1.02 0.25 95 1004.6
20260507065013 9 360 0.0 3.2 0.00 1.02 0.25 95 1004.6
20260507064503 9 360 0.0 3.2 0.00 1.02 0.25 95 1004.4
20260507064003 9 338 0.0 3.2 0.00 1.02 0.25 95 1004.4
20260507063507 9 25 0.0 3.2 0.00 1.02 0.25 94 1004.3
20260507063004 9 35 0.0 4.8 0.00 1.02 0.25 94 1004.5
20260507062503 9 281 0.0 4.8 0.00 1.02 0.25 95 1004.5
20260507062006 9 288 0.0 6.4 0.00 1.02 0.25 95 1004.2
20260507061507 9 331 0.0 6.4 0.00 1.02 0.25 94 1004.1
20260507061006 9 13 0.0 4.8 0.03 1.02 0.25 94 1004.0
20260507060505 9 273 0.0 6.4 0.03 1.02 0.25 94 1004.2
20260507060013 9 286 1.6 6.4 0.03 1.02 0.25 94 1004.2
20260507055506 9 17 1.6 4.8 0.03 1.02 0.25 94 1004.0
20260507055011 10 40 3.2 14.5 0.03 1.02 0.25 94 1004.1
20260507054506 10 360 1.6 14.5 0.03 1.02 0.25 94 1004.2
20260507054007 10 326 3.2 12.9 0.03 1.02 0.25 94 1003.9
20260507053508 10 17 1.6 11.3 0.05 1.02 0.25 94 1004.3
20260507053010 10 340 3.2 16.1 0.05 1.02 0.25 94 1004.2
20260507052506 10 167 1.6 19.3 0.10 1.02 0.25 95 1004.1
20260507052012 10 9 4.8 19.3 0.13 1.02 0.25 95 1004.2
20260507051513 10 40 6.4 16.1 0.20 1.02 0.25 95 1003.9
20260507051008 10 28 1.6 9.7 0.23 0.99 0.23 96 1004.0
20260507050514 11 71 3.2 12.9 0.23 0.99 0.23 95 1004.2
20260507050021 11 325 3.2 12.9 0.23 0.99 0.23 95 1004.0
20260507045507 11 352 1.6 9.7 0.23 0.99 0.23 96 1003.8
20260507045007 11 17 1.6 9.7 0.23 0.99 0.23 96 1003.7
20260507044511 11 5 3.2 9.7 0.23 0.99 0.23 96 1003.8
20260507044010 11 9 1.6 9.7 0.23 0.99 0.23 96 1003.9
20260507043507 11 324 1.6 12.9 0.20 0.97 0.20 96 1003.8
20260507043014 11 5 3.2 12.9 0.20 0.97 0.20 96 1003.6
20260507042508 11 42 3.2 14.5 0.15 0.91 0.15 97 1003.9
20260507042003 11 49 4.8 14.5 0.13 0.89 0.13 97 1003.9
20260507041514 11 342 4.8 11.3 0.05 0.81 0.05 96 1004.0
20260507041008 11 14 3.2 6.4 0.00 0.76 0.00 96 1003.9
20260507040507 11 254 1.6 3.2 0.00 0.76 0.00 96 1003.4
20260507040016 11 244 0.0 3.2 0.00 0.76 0.00 96 1003.3
20260507035508 11 240 0.0 4.8 0.00 0.76 0.76 96 1003.1
20260507035008 11 205 0.0 4.8 0.00 0.76 0.76 96 1003.1
20260507034520 11 150 0.0 1.6 0.00 0.76 0.76 96 1002.9
20260507034010 11 163 0.0 1.6 0.00 0.76 0.76 96 1002.9
20260507033503 11 163 0.0 3.2 0.00 0.76 0.76 96 1003.0
20260507033021 11 99 0.0 3.2 0.00 0.76 0.76 96 1002.7
20260507032513 11 99 0.0 1.6 0.00 0.76 0.76 96 1002.8
20260507032006 11 99 0.0 1.6 0.00 0.76 0.76 96 1002.9
20260507031521 10 99 0.0 1.6 0.00 0.76 0.76 96 1003.0
20260507031014 10 83 0.0 1.6 0.00 0.76 0.76 96 1002.9
20260507030507 10 97 0.0 1.6 0.00 0.76 0.76 96 1003.0
20260507030018 10 97 0.0 1.6 0.00 0.76 0.76 96 1003.0
20260507025508 10 97 0.0 3.2 0.00 0.76 0.76 96 1003.0
20260507025003 10 97 0.0 3.2 0.00 0.76 0.76 96 1003.0
20260507024522 10 46 0.0 3.2 0.03 0.76 0.76 96 1003.0